• In Hungary
  • List of Countries
  • For 7 days
  • Water Temperature
  • Satellite Maps
  • Weather Map
  • News
  • Weather Widgets
  • user-avatar
    Login

    Hourly Weather Shrewsbury

    Today, 26 May, Saturday

    Time Temperature Precipitation Wind Pressure Humidity
    00:00 +14°C° 0 mm 2 mps 760 mmHg 96%
    01:00 +14°C° 0 mm 2 mps 760 mmHg 97%
    02:00 +14°C° 0 mm 2 mps 760 mmHg 97%
    03:00 +13°C° 0 mm 3 mps 760 mmHg 97%
    04:00 +13°C° 0 mm 3 mps 760 mmHg 96%
    05:00 +13°C° 0 mm 3 mps 760 mmHg 96%
    06:00 +14°C° 0 mm 2 mps 760 mmHg 95%
    07:00 +13°C° 0 mm 3 mps 760 mmHg 93%
    08:00 +14°C° 0 mm 3 mps 760 mmHg 92%
    09:00 +15°C° 0 mm 4 mps 760 mmHg 90%
    10:00 +17°C° 0 mm 4 mps 760 mmHg 87%
    11:00 +19°C° 0 mm 5 mps 760 mmHg 84%
    12:00 +20°C° 0 mm 5 mps 760 mmHg 81%
    13:00 +21°C° 0.2 mm 6 mps 760 mmHg 79%
    14:00 +21°C° 0.2 mm 6 mps 760 mmHg 78%
    15:00 +22°C° 0.2 mm 7 mps 759 mmHg 76%
    16:00 +21°C° 0.1 mm 7 mps 759 mmHg 77%
    17:00 +20°C° 0.1 mm 7 mps 759 mmHg 77%
    18:00 +19°C° 0.1 mm 6 mps 759 mmHg 78%
    19:00 +17°C° 0 mm 6 mps 759 mmHg 78%
    20:00 +16°C° 0 mm 6 mps 759 mmHg 77%
    21:00 +14°C° 0 mm 6 mps 759 mmHg 77%
    22:00 +14°C° 0.1 mm 6 mps 759 mmHg 77%
    23:00 +13°C° 0.1 mm 5 mps 759 mmHg 78%

    Tomorrow, 27 May, Sunday

    Time Temperature Precipitation Wind Pressure Humidity
    00:00 +13°C° 0.1 mm 5 mps 759 mmHg 78%
    01:00 +13°C° 0.2 mm 5 mps 758 mmHg 82%
    02:00 +13°C° 0.2 mm 5 mps 758 mmHg 86%
    03:00 +13°C° 0.2 mm 5 mps 757 mmHg 90%
    04:00 +13°C° 0.3 mm 5 mps 757 mmHg 91%
    05:00 +14°C° 0.3 mm 5 mps 757 mmHg 92%
    06:00 +14°C° 0.3 mm 5 mps 757 mmHg 93%
    07:00 +15°C° 0.6 mm 5 mps 757 mmHg 92%
    08:00 +16°C° 0.6 mm 5 mps 757 mmHg 91%
    09:00 +17°C° 0.6 mm 5 mps 757 mmHg 91%
    10:00 +19°C° 0.9 mm 5 mps 757 mmHg 91%
    11:00 +19°C° 0.9 mm 5 mps 757 mmHg 91%
    12:00 +19°C° 0.9 mm 5 mps 756 mmHg 92%
    13:00 +20°C° 1.6 mm 5 mps 756 mmHg 90%
    14:00 +21°C° 1.6 mm 5 mps 756 mmHg 89%
    15:00 +21°C° 1.6 mm 5 mps 755 mmHg 87%
    16:00 +21°C° 2.4 mm 4 mps 755 mmHg 88%
    17:00 +21°C° 2.4 mm 4 mps 755 mmHg 88%
    18:00 +21°C° 2.4 mm 4 mps 755 mmHg 89%
    19:00 +20°C° 0.6 mm 4 mps 756 mmHg 90%
    20:00 +19°C° 0.6 mm 4 mps 756 mmHg 92%
    21:00 +18°C° 0.6 mm 3 mps 756 mmHg 93%
    22:00 +17°C° 0.1 mm 3 mps 757 mmHg 94%
    23:00 +16°C° 0.1 mm 3 mps 757 mmHg 94%

    Day after tomorrow, 28 May, Monday

    Time Temperature Precipitation Wind Pressure Humidity
    00:00 +16°C° 0.1 mm 2 mps 757 mmHg 95%
    01:00 +15°C° 0 mm 2 mps 757 mmHg 95%
    02:00 +15°C° 0 mm 2 mps 757 mmHg 95%
    03:00 +14°C° 0 mm 2 mps 757 mmHg 96%
    04:00 +15°C° 0 mm 2 mps 757 mmHg 95%
    05:00 +15°C° 0 mm 1 mps 758 mmHg 95%
    06:00 +15°C° 0 mm 1 mps 758 mmHg 94%
    07:00 +16°C° 0 mm 2 mps 758 mmHg 92%
    08:00 +17°C° 0 mm 2 mps 758 mmHg 90%
    09:00 +18°C° 0 mm 2 mps 758 mmHg 88%
    10:00 +19°C° 0 mm 2 mps 758 mmHg 86%
    11:00 +20°C° 0 mm 2 mps 758 mmHg 85%
    12:00 +21°C° 0 mm 2 mps 758 mmHg 83%
    13:00 +21°C° 0 mm 2 mps 758 mmHg 83%
    14:00 +23°C° 0 mm 2 mps 758 mmHg 83%
    15:00 +23°C° 0 mm 2 mps 758 mmHg 83%
    16:00 +22°C° 0.6 mm 3 mps 758 mmHg 84%
    17:00 +22°C° 0.6 mm 3 mps 759 mmHg 85%
    18:00 +22°C° 0.6 mm 3 mps 759 mmHg 86%
    19:00 +21°C° 0.2 mm 3 mps 759 mmHg 89%
    20:00 +19°C° 0.2 mm 3 mps 759 mmHg 91%
    21:00 +18°C° 0.2 mm 3 mps 759 mmHg 93%
    22:00 +17°C° 0 mm 3 mps 759 mmHg 94%
    23:00 +16°C° 0 mm 3 mps 759 mmHg 94%

    29 May, Tuesday

    Time Temperature Precipitation Wind Pressure Humidity
    00:00 +14°C° 0 mm 3 mps 760 mmHg 94%
    01:00 +13°C° 0 mm 3 mps 759 mmHg 94%
    02:00 +13°C° 0 mm 3 mps 759 mmHg 94%
    03:00 +13°C° 0 mm 2 mps 759 mmHg 94%
    04:00 +13°C° 0 mm 3 mps 759 mmHg 93%
    05:00 +13°C° 0 mm 3 mps 759 mmHg 92%
    06:00 +14°C° 0 mm 3 mps 759 mmHg 91%
    07:00 +16°C° 0 mm 3 mps 759 mmHg 86%
    08:00 +18°C° 0 mm 4 mps 759 mmHg 82%
    09:00 +19°C° 0 mm 4 mps 759 mmHg 78%
    10:00 +20°C° 0 mm 5 mps 758 mmHg 76%
    11:00 +21°C° 0 mm 5 mps 758 mmHg 74%
    12:00 +22°C° 0 mm 5 mps 758 mmHg 72%
    13:00 +23°C° 0 mm 5 mps 758 mmHg 71%
    14:00 +23°C° 0 mm 5 mps 757 mmHg 71%
    15:00 +23°C° 0 mm 5 mps 757 mmHg 70%
    16:00 +23°C° 0 mm 5 mps 757 mmHg 73%
    17:00 +22°C° 0 mm 4 mps 757 mmHg 76%
    18:00 +21°C° 0 mm 4 mps 756 mmHg 79%
    19:00 +19°C° 0 mm 4 mps 756 mmHg 82%
    20:00 +18°C° 0 mm 4 mps 757 mmHg 86%
    21:00 +16°C° 0 mm 3 mps 757 mmHg 89%
    22:00 +14°C° 0 mm 3 mps 757 mmHg 91%
    23:00 +13°C° 0 mm 3 mps 757 mmHg 92%

    30 May, Wednesday

    Time Temperature Precipitation Wind Pressure Humidity
    00:00 +13°C° 0 mm 2 mps 757 mmHg 93%
    01:00 +13°C° 0 mm 2 mps 756 mmHg 94%
    02:00 +12°C° 0 mm 2 mps 756 mmHg 94%
    03:00 +12°C° 0 mm 2 mps 756 mmHg 95%
    04:00 +12°C° 0 mm 2 mps 756 mmHg 94%
    05:00 +13°C° 0 mm 2 mps 756 mmHg 93%
    06:00 +13°C° 0 mm 2 mps 756 mmHg 92%
    07:00 +13°C° 0 mm 3 mps 756 mmHg 89%
    08:00 +14°C° 0 mm 3 mps 756 mmHg 87%
    09:00 +16°C° 0 mm 3 mps 756 mmHg 84%
    10:00 +17°C° 0 mm 3 mps 756 mmHg 82%
    11:00 +18°C° 0 mm 3 mps 755 mmHg 80%
    12:00 +19°C° 0 mm 3 mps 755 mmHg 78%
    13:00 +19°C° 0 mm 3 mps 755 mmHg 78%
    14:00 +19°C° 0 mm 2 mps 755 mmHg 78%
    15:00 +20°C° 0 mm 2 mps 755 mmHg 77%
    16:00 +20°C° 0 mm 2 mps 754 mmHg 79%
    17:00 +20°C° 0 mm 2 mps 754 mmHg 81%
    18:00 +19°C° 0 mm 2 mps 754 mmHg 83%
    19:00 +19°C° 0 mm 1 mps 754 mmHg 86%
    20:00 +18°C° 0 mm 1 mps 755 mmHg 88%
    21:00 +16°C° 0 mm 1 mps 755 mmHg 91%
    22:00 +16°C° 0 mm 1 mps 755 mmHg 92%
    23:00 +15°C° 0 mm 1 mps 755 mmHg 93%

    31 May, Thursday

    Time Temperature Precipitation Wind Pressure Humidity
    00:00 +15°C° 0 mm 1 mps 755 mmHg 94%
    01:00 +14°C° 0 mm 1 mps 755 mmHg 95%
    02:00 +14°C° 0 mm 1 mps 755 mmHg 95%
    03:00 +14°C° 0 mm 1 mps 755 mmHg 96%
    04:00 +14°C° 0 mm 1 mps 755 mmHg 95%
    05:00 +15°C° 0 mm 1 mps 755 mmHg 94%
    06:00 +15°C° 0 mm 1 mps 755 mmHg 94%
    07:00 +16°C° 0 mm 1 mps 755 mmHg 90%
    08:00 +18°C° 0 mm 1 mps 755 mmHg 87%
    09:00 +19°C° 0 mm 1 mps 756 mmHg 84%
    10:00 +19°C° 0 mm 2 mps 756 mmHg 82%
    11:00 +19°C° 0 mm 2 mps 756 mmHg 80%
    12:00 +20°C° 0 mm 2 mps 756 mmHg 78%
    13:00 +20°C° 0 mm 2 mps 756 mmHg 76%
    14:00 +21°C° 0 mm 2 mps 756 mmHg 75%
    15:00 +23°C° 0 mm 2 mps 756 mmHg 73%
    16:00 +21°C° 0 mm 2 mps 756 mmHg 75%
    17:00 +21°C° 0 mm 2 mps 756 mmHg 78%
    18:00 +21°C° 0 mm 2 mps 756 mmHg 80%
    19:00 +20°C° 0 mm 2 mps 756 mmHg 84%
    20:00 +18°C° 0 mm 2 mps 757 mmHg 88%
    21:00 +17°C° 0 mm 2 mps 757 mmHg 92%
    22:00 +17°C° 0 mm 2 mps 757 mmHg 93%
    23:00 +16°C° 0 mm 1 mps 758 mmHg 94%
    Show more